Location: Coupvray
(48.8929°N, 2.7967°E)
Time: 04:35:42
(UTC+00:00)

Cosmos 1733 Rocket - Pass Details

Date: 14 July 2020
Orbit: 604 x 628 km, 82.5° (Epoch: 06 August)

Event Time Altitude Azimuth Distance (km) Brightness Sun altitude
Exits shadow 03:06:39 10° 223° (SW) 1,984 4.9 -7.6°
Reaches altitude 10° 03:06:44 10° 224° (SW) 1,950 4.9 -7.6°
Maximum altitude 03:10:37 32° 288° (WNW) 1,048 4.0 -7.1°
Drops below altitude 10° 03:14:32 10° 352° (N) 1,964 6.2 -6.6°
Sets 03:16:57 0° 3° (N) 2,874 7.3 -6.4°
